Location: Treviso
(45.6669°N, 12.2430°E)
Time: 10:40:44
(UTC+01:00)

ISS - Pass Details

Date: 21 March 2023
Orbit: 414 x 423 km, 51.6° (Epoch: 20 March)

Event Time Altitude Azimuth Distance (km) Brightness Sun altitude
Rises 21:03:37 0° 288° (WNW) 2,357 1.2 -27.2°
Reaches altitude 10° 21:05:55 10° 300° (WNW) 1,493 0.0 -27.5°
Enters shadow 21:07:23 20° 320° (NW) 1,029 -1.1 -27.7°
